| time (UTC) | temp F | wind direction | speed MPH | gust MPH | rain 1hr in | rain 24hr in | rain mn in | humidity % | barometer mb |
| 20260505003813 | 66 | 229 | 0.0 | 2.0 | 0.00 | 0.00 | 0.00 | 58 | 1011.4 |
| 20260505003502 | 66 | 125 | 0.0 | 2.0 | 0.00 | 0.00 | 0.00 | 56 | 1014.9 |
| 20260505003008 | 67 | 242 | 0.0 | 2.0 | 0.00 | 0.00 | 0.00 | 56 | 1015.0 |
| 20260505002811 | 68 | 229 | 1.0 | 1.0 | 0.00 | 0.00 | 0.00 | 54 | 1011.3 |
| 20260505002506 | 68 | 235 | 0.0 | 2.0 | 0.00 | 0.00 | 0.00 | 54 | 1015.0 |
| 20260505002006 | 68 | 235 | 0.0 | 2.0 | 0.00 | 0.00 | 0.00 | 53 | 1015.0 |
| 20260505001810 | 69 | 223 | 0.0 | 0.0 | 0.00 | 0.00 | 0.00 | 53 | 1011.3 |
| 20260505001504 | 69 | 235 | 0.0 | 2.0 | 0.00 | 0.00 | 0.00 | 53 | 1015.0 |
| 20260505001003 | 70 | 235 | 0.0 | 2.0 | 0.00 | 0.00 | 0.00 | 51 | 1014.9 |
| 20260505000809 | 70 | 223 | 0.0 | 0.0 | 0.00 | 0.00 | 0.00 | 49 | 1011.3 |
| 20260505000506 | 70 | 235 | 0.0 | 1.0 | 0.00 | 0.00 | 0.00 | 49 | 1014.9 |
| 20260505000005 | 70 | 235 | 0.0 | 2.0 | 0.00 | 0.00 | 0.00 | 50 | 1014.9 |
| 20260504235808 | 71 | 223 | 0.0 | 0.0 | 0.00 | 0.00 | 0.00 | 50 | 1011.3 |
| 20260504235504 | 71 | 235 | 0.0 | 2.0 | 0.00 | 0.00 | 0.00 | 48 | 1014.9 |
| 20260504235002 | 71 | 235 | 0.0 | 2.0 | 0.00 | 0.00 | 0.00 | 47 | 1014.9 |
| 20260504234807 | 72 | 223 | 0.0 | 0.0 | 0.00 | 0.00 | 0.00 | 50 | 1011.3 |
| 20260504234503 | 72 | 235 | 0.0 | 2.0 | 0.00 | 0.00 | 0.00 | 46 | 1014.9 |
| 20260504234002 | 72 | 317 | 0.0 | 2.0 | 0.00 | 0.00 | 0.00 | 47 | 1014.8 |
| 20260504233805 | 72 | 223 | 0.0 | 2.0 | 0.00 | 0.00 | 0.00 | 49 | 1011.2 |
| 20260504233503 | 72 | 317 | 0.0 | 2.0 | 0.00 | 0.00 | 0.00 | 46 | 1014.7 |
| 20260504233007 | 73 | 10 | 0.0 | 5.0 | 0.00 | 0.00 | 0.00 | 44 | 1014.7 |
| 20260504232805 | 73 | 223 | 0.0 | 4.0 | 0.00 | 0.00 | 0.00 | 46 | 1011.2 |
| 20260504232503 | 73 | 254 | 1.0 | 5.0 | 0.00 | 0.00 | 0.00 | 45 | 1014.8 |
| 20260504232002 | 73 | 248 | 1.0 | 6.0 | 0.00 | 0.00 | 0.00 | 43 | 1014.8 |
| 20260504231804 | 74 | 236 | 1.0 | 5.0 | 0.00 | 0.00 | 0.00 | 45 | 1011.2 |
| 20260504231510 | 74 | 229 | 1.0 | 6.0 | 0.00 | 0.00 | 0.00 | 44 | 1014.8 |
| 20260504231007 | 74 | 205 | 1.0 | 4.0 | 0.00 | 0.00 | 0.00 | 43 | 1014.8 |
| 20260504230505 | 75 | 147 | 1.0 | 4.0 | 0.00 | 0.00 | 0.00 | 43 | 1014.7 |
| 20260504230010 | 75 | 180 | 1.0 | 4.0 | 0.00 | 0.00 | 0.00 | 43 | 1014.7 |
| 20260504225803 | 76 | 283 | 1.0 | 6.0 | 0.00 | 0.00 | 0.00 | 44 | 1011.1 |
| 20260504225506 | 76 | 294 | 1.0 | 5.0 | 0.00 | 0.00 | 0.00 | 41 | 1014.7 |
| 20260504225008 | 76 | 303 | 1.0 | 5.0 | 0.00 | 0.00 | 0.00 | 43 | 1014.7 |
| 20260504224800 | 76 | 249 | 0.0 | 4.0 | 0.00 | 0.00 | 0.00 | 44 | 1011.1 |
| 20260504224508 | 76 | 205 | 1.0 | 4.0 | 0.00 | 0.00 | 0.00 | 42 | 1014.7 |
| 20260504224003 | 76 | 259 | 0.0 | 6.0 | 0.00 | 0.00 | 0.00 | 42 | 1014.7 |
| 20260504223504 | 77 | 306 | 3.0 | 6.0 | 0.00 | 0.00 | 0.00 | 41 | 1014.7 |
| 20260504223004 | 77 | 304 | 1.0 | 5.0 | 0.00 | 0.00 | 0.00 | 43 | 1014.7 |
| 20260504222759 | 77 | 238 | 2.0 | 8.0 | 0.00 | 0.00 | 0.00 | 42 | 1011.1 |
| 20260504222503 | 77 | 206 | 2.0 | 6.0 | 0.00 | 0.00 | 0.00 | 42 | 1014.7 |
| 20260504222006 | 77 | 267 | 1.0 | 6.0 | 0.00 | 0.00 | 0.00 | 40 | 1014.7 |
| 20260504221758 | 77 | 274 | 1.0 | 7.0 | 0.00 | 0.00 | 0.00 | 40 | 1011.3 |
| 20260504221508 | 78 | 292 | 2.0 | 8.0 | 0.00 | 0.00 | 0.00 | 43 | 1014.8 |
| 20260504221003 | 78 | 247 | 2.0 | 8.0 | 0.00 | 0.00 | 0.00 | 39 | 1014.8 |
| 20260504220757 | 78 | 233 | 4.0 | 6.0 | 0.00 | 0.00 | 0.00 | 40 | 1011.3 |
| 20260504220506 | 78 | 237 | 4.0 | 7.0 | 0.00 | 0.00 | 0.00 | 40 | 1014.9 |
| 20260504220012 | 78 | 265 | 1.0 | 6.0 | 0.00 | 0.00 | 0.00 | 41 | 1014.7 |
| 20260504215755 | 78 | 261 | 1.0 | 7.0 | 0.00 | 0.00 | 0.00 | 43 | 1011.3 |
| 20260504215510 | 78 | 220 | 2.0 | 6.0 | 0.00 | 0.00 | 0.00 | 40 | 1014.8 |
| 20260504215006 | 78 | 248 | 1.0 | 3.0 | 0.00 | 0.00 | 0.00 | 43 | 1014.8 |
| 20260504214754 | 78 | 244 | 1.0 | 10.0 | 0.00 | 0.00 | 0.00 | 41 | 1011.3 |
| 20260504214528 | 78 | 116 | 0.0 | 8.0 | 0.00 | 0.00 | 0.00 | 43 | 1014.7 |
| 20260504214014 | 78 | 269 | 2.0 | 8.0 | 0.00 | 0.00 | 0.00 | 43 | 1014.8 |
| 20260504213754 | 77 | 208 | 1.0 | 7.0 | 0.00 | 0.00 | 0.00 | 41 | 1011.2 |
| 20260504213503 | 78 | 152 | 1.0 | 4.0 | 0.00 | 0.00 | 0.00 | 40 | 1014.7 |
| 20260504213012 | 78 | 309 | 1.0 | 4.0 | 0.00 | 0.00 | 0.00 | 43 | 1014.7 |
| 20260504212752 | 77 | 315 | 1.0 | 4.0 | 0.00 | 0.00 | 0.00 | 39 | 1011.2 |
| 20260504212503 | 77 | 244 | 1.0 | 4.0 | 0.00 | 0.00 | 0.00 | 42 | 1014.7 |
| 20260504212005 | 78 | 18 | 2.0 | 5.0 | 0.00 | 0.00 | 0.00 | 39 | 1014.8 |
| 20260504211752 | 78 | 64 | 1.0 | 5.0 | 0.00 | 0.00 | 0.00 | 40 | 1011.4 |
| 20260504211507 | 78 | 189 | 2.0 | 7.0 | 0.00 | 0.00 | 0.00 | 38 | 1014.9 |
| 20260504211003 | 78 | 313 | 2.0 | 7.0 | 0.00 | 0.00 | 0.00 | 43 | 1015.0 |
| 20260504210750 | 78 | 236 | 4.0 | 8.0 | 0.00 | 0.00 | 0.00 | 39 | 1011.5 |
| 20260504210503 | 78 | 61 | 2.0 | 7.0 | 0.00 | 0.00 | 0.00 | 42 | 1015.0 |
| 20260504210010 | 78 | 205 | 1.0 | 8.0 | 0.00 | 0.00 | 0.00 | 45 | 1015.0 |
| 20260504205750 | 78 | 159 | 2.0 | 8.0 | 0.00 | 0.00 | 0.00 | 39 | 1011.6 |
| 20260504205507 | 78 | 167 | 4.0 | 10.0 | 0.00 | 0.00 | 0.00 | 41 | 1015.1 |
| 20260504205007 | 78 | 325 | 2.0 | 10.0 | 0.00 | 0.00 | 0.00 | 42 | 1015.2 |
| 20260504204749 | 78 | 277 | 8.0 | 8.0 | 0.00 | 0.00 | 0.00 | 39 | 1011.7 |
| 20260504204516 | 78 | 29 | 2.0 | 7.0 | 0.00 | 0.00 | 0.00 | 39 | 1015.2 |
| 20260504204004 | 78 | 168 | 3.0 | 7.0 | 0.00 | 0.00 | 0.00 | 40 | 1015.2 |
| 20260504203747 | 78 | 218 | 5.0 | 7.0 | 0.00 | 0.00 | 0.00 | 37 | 1011.8 |
| 20260504203509 | 78 | 180 | 2.0 | 6.0 | 0.00 | 0.00 | 0.00 | 40 | 1015.3 |
| 20260504203022 | 78 | 282 | 2.0 | 9.0 | 0.00 | 0.00 | 0.00 | 39 | 1015.3 |
| 20260504202746 | 78 | 165 | 6.0 | 7.0 | 0.00 | 0.00 | 0.00 | 38 | 1011.9 |
| 20260504202511 | 78 | 209 | 1.0 | 9.0 | 0.00 | 0.00 | 0.00 | 47 | 1015.3 |
| 20260504202006 | 78 | 43 | 1.0 | 8.0 | 0.00 | 0.00 | 0.00 | 38 | 1015.3 |
| 20260504201522 | 78 | 265 | 3.0 | 5.0 | 0.00 | 0.00 | 0.00 | 39 | 1015.4 |
| 20260504201008 | 78 | 49 | 1.0 | 6.0 | 0.00 | 0.00 | 0.00 | 41 | 1015.4 |
| 20260504200744 | 78 | 246 | 3.0 | 7.0 | 0.00 | 0.00 | 0.00 | 37 | 1012.1 |
| 20260504200503 | 77 | 276 | 3.0 | 6.0 | 0.00 | 0.00 | 0.00 | 39 | 1015.5 |
| 20260504200017 | 77 | 230 | 1.0 | 8.0 | 0.00 | 0.00 | 0.00 | 42 | 1015.6 |
| 20260504195743 | 77 | 262 | 0.0 | 9.0 | 0.00 | 0.00 | 0.00 | 37 | 1012.3 |
| 20260504195505 | 77 | 330 | 2.0 | 8.0 | 0.00 | 0.00 | 0.00 | 38 | 1015.7 |
| 20260504195007 | 77 | 238 | 3.0 | 7.0 | 0.00 | 0.00 | 0.00 | 44 | 1015.8 |
| 20260504194743 | 77 | 241 | 3.0 | 9.0 | 0.00 | 0.00 | 0.00 | 40 | 1012.5 |
| 20260504194514 | 77 | 12 | 3.0 | 6.0 | 0.00 | 0.00 | 0.00 | 44 | 1015.9 |
| 20260504194007 | 77 | 56 | 0.0 | 5.0 | 0.00 | 0.00 | 0.00 | 44 | 1016.0 |
| 20260504193741 | 77 | 118 | 0.0 | 9.0 | 0.00 | 0.00 | 0.00 | 41 | 1012.7 |
| 20260504193514 | 77 | 272 | 1.0 | 8.0 | 0.00 | 0.00 | 0.00 | 42 | 1016.1 |
| 20260504193008 | 76 | 360 | 2.0 | 8.0 | 0.00 | 0.00 | 0.00 | 46 | 1016.2 |
| 20260504192512 | 76 | 236 | 1.0 | 5.0 | 0.00 | 0.00 | 0.00 | 52 | 1016.2 |
| 20260504192008 | 76 | 289 | 2.0 | 6.0 | 0.00 | 0.00 | 0.00 | 44 | 1016.3 |
| 20260504191739 | 76 | 211 | 2.0 | 7.0 | 0.00 | 0.00 | 0.00 | 42 | 1013.1 |
| 20260504191524 | 75 | 186 | 2.0 | 10.0 | 0.00 | 0.00 | 0.00 | 46 | 1016.4 |
| 20260504191006 | 75 | 207 | 2.0 | 10.0 | 0.00 | 0.00 | 0.00 | 43 | 1016.5 |
| 20260504190739 | 76 | 312 | 1.0 | 6.0 | 0.00 | 0.00 | 0.00 | 44 | 1013.2 |
| 20260504190511 | 75 | 323 | 3.0 | 6.0 | 0.00 | 0.00 | 0.00 | 48 | 1016.5 |
| 20260504190026 | 74 | 220 | 2.0 | 6.0 | 0.00 | 0.00 | 0.00 | 53 | 1016.6 |
| 20260504185738 | 75 | 202 | 3.0 | 7.0 | 0.00 | 0.00 | 0.00 | 43 | 1013.5 |
| 20260504185506 | 74 | 295 | 1.0 | 9.0 | 0.00 | 0.00 | 0.00 | 43 | 1016.7 |
| 20260504185006 | 74 | 294 | 3.0 | 11.0 | 0.00 | 0.00 | 0.00 | 45 | 1016.8 |
| 20260504184736 | 75 | 306 | 8.0 | 9.0 | 0.00 | 0.00 | 0.00 | 43 | 1013.6 |
| 20260504184515 | 74 | 316 | 5.0 | 11.0 | 0.00 | 0.00 | 0.00 | 48 | 1016.9 |
| 20260504184005 | 74 | 90 | 3.0 | 10.0 | 0.00 | 0.00 | 0.00 | 45 | 1017.0 |
| 20260504183507 | 74 | 306 | 1.0 | 9.0 | 0.00 | 0.00 | 0.00 | 45 | 1017.0 |
| 20260504183024 | 75 | 306 | 3.0 | 9.0 | 0.00 | 0.00 | 0.00 | 45 | 1017.1 |
| 20260504182734 | 75 | 292 | 5.0 | 9.0 | 0.00 | 0.00 | 0.00 | 43 | 1013.9 |
| 20260504182509 | 74 | 307 | 2.0 | 9.0 | 0.00 | 0.00 | 0.00 | 47 | 1017.1 |
| 20260504182010 | 74 | 227 | 3.0 | 11.0 | 0.00 | 0.00 | 0.00 | 48 | 1017.2 |
| 20260504181733 | 75 | 217 | 0.0 | 10.0 | 0.00 | 0.00 | 0.00 | 42 | 1014.0 |
| 20260504181518 | 74 | 327 | 1.0 | 11.0 | 0.00 | 0.00 | 0.00 | 46 | 1017.2 |
| 20260504181010 | 73 | 205 | 2.0 | 7.0 | 0.00 | 0.00 | 0.00 | 44 | 1017.2 |
| 20260504180732 | 74 | 360 | 2.0 | 6.0 | 0.00 | 0.00 | 0.00 | 42 | 1014.0 |
| 20260504180511 | 73 | 302 | 3.0 | 8.0 | 0.00 | 0.00 | 0.00 | 46 | 1017.3 |
| 20260504180014 | 73 | 178 | 1.0 | 10.0 | 0.00 | 0.00 | 0.00 | 51 | 1017.3 |
| 20260504175731 | 74 | 259 | 0.0 | 9.0 | 0.00 | 0.00 | 0.00 | 42 | 1014.2 |
| 20260504175507 | 73 | 63 | 3.0 | 10.0 | 0.00 | 0.00 | 0.00 | 47 | 1017.4 |
| 20260504175011 | 73 | 299 | 3.0 | 8.0 | 0.00 | 0.00 | 0.00 | 49 | 1017.5 |
| 20260504174730 | 73 | 329 | 2.0 | 10.0 | 0.00 | 0.00 | 0.00 | 45 | 1014.3 |
| 20260504174526 | 73 | 46 | 1.0 | 8.0 | 0.00 | 0.00 | 0.00 | 45 | 1017.4 |
| 20260504174005 | 73 | 272 | 3.0 | 11.0 | 0.00 | 0.00 | 0.00 | 44 | 1017.6 |
| 20260504173729 | 73 | 260 | 2.0 | 11.0 | 0.00 | 0.00 | 0.00 | 45 | 1014.6 |
| 20260504173510 | 73 | 182 | 2.0 | 11.0 | 0.00 | 0.00 | 0.00 | 48 | 1017.7 |
| 20260504173018 | 73 | 233 | 3.0 | 7.0 | 0.00 | 0.00 | 0.00 | 49 | 1017.8 |
| 20260504172727 | 72 | 267 | 7.0 | 10.0 | 0.00 | 0.00 | 0.00 | 43 | 1014.6 |
| 20260504172512 | 72 | 189 | 2.0 | 7.0 | 0.00 | 0.00 | 0.00 | 52 | 1017.7 |
| 20260504172011 | 72 | 150 | 3.0 | 7.0 | 0.00 | 0.00 | 0.00 | 48 | 1017.8 |
| 20260504171727 | 72 | 276 | 2.0 | 9.0 | 0.00 | 0.00 | 0.00 | 45 | 1014.8 |
| 20260504171524 | 72 | 352 | 2.0 | 8.0 | 0.00 | 0.00 | 0.00 | 45 | 1017.9 |
| 20260504171003 | 72 | 283 | 3.0 | 9.0 | 0.00 | 0.00 | 0.00 | 47 | 1018.0 |
| 20260504170726 | 71 | 207 | 4.0 | 6.0 | 0.00 | 0.00 | 0.00 | 45 | 1014.9 |
| 20260504170503 | 72 | 184 | 3.0 | 7.0 | 0.00 | 0.00 | 0.00 | 56 | 1018.1 |
| 20260504151003 | 63 | 34 | 4.0 | 9.0 | 0.00 | 0.00 | 0.00 | 54 | 1020.1 |
| 20260504150714 | 64 | 5 | 2.0 | 5.0 | 0.00 | 0.00 | 0.00 | 51 | 1017.3 |
| 20260504150501 | 63 | 11 | 3.0 | 6.0 | 0.00 | 0.00 | 0.00 | 59 | 1020.1 |
| 20260504141004 | 58 | 9 | 2.0 | 5.0 | 0.00 | 0.00 | 0.00 | 61 | 1020.6 |
| 20260504140707 | 59 | 62 | 2.0 | 5.0 | 0.00 | 0.00 | 0.00 | 58 | 1017.8 |
| 20260504140504 | 58 | 360 | 2.0 | 4.0 | 0.00 | 0.00 | 0.00 | 63 | 1020.6 |
| 20260504130506 | 54 | 29 | 4.0 | 6.0 | 0.00 | 0.00 | 0.00 | 73 | 1020.0 |
| 20260504110648 | 41 | 88 | 1.0 | 3.0 | 0.00 | 0.00 | 0.00 | 88 | 1016.4 |
| 20260504110502 | 39 | 133 | 4.0 | 4.0 | 0.00 | 0.00 | 0.00 | 89 | 1019.0 |
| 20260504100506 | 39 | 119 | 1.0 | 3.0 | 0.00 | 0.00 | 0.00 | 90 | 1019.1 |
| 20260504082007 | 39 | 161 | 5.0 | 6.0 | 0.00 | 0.00 | 0.00 | 87 | 1019.3 |
| 20260504081527 | 39 | 142 | 2.0 | 2.0 | 0.00 | 0.00 | 0.00 | 88 | 1019.5 |
| 20260504081004 | 39 | 115 | 2.0 | 2.0 | 0.00 | 0.00 | 0.00 | 88 | 1019.7 |
| 20260504080630 | 39 | 158 | 0.0 | 1.0 | 0.00 | 0.00 | 0.00 | 87 | 1017.2 |
| 20260504080507 | 39 | 117 | 2.0 | 2.0 | 0.00 | 0.00 | 0.00 | 88 | 1019.7 |
| 20260504050611 | 44 | 158 | 1.0 | 2.0 | 0.00 | 0.00 | 0.00 | 79 | 1016.9 |
| 20260504050507 | 43 | 108 | 1.0 | 2.0 | 0.00 | 0.00 | 0.00 | 78 | 1019.5 |
| 20260504050006 | 44 | 113 | 1.0 | 2.0 | 0.00 | 0.00 | 0.00 | 77 | 1019.5 |
| 20260504045610 | 44 | 158 | 1.0 | 2.0 | 0.00 | 0.00 | 0.00 | 77 | 1016.8 |
| 20260504045503 | 44 | 107 | 1.0 | 2.0 | 0.00 | 0.00 | 0.00 | 77 | 1019.5 |
| 20260504045005 | 44 | 117 | 2.0 | 2.0 | 0.00 | 0.00 | 0.00 | 77 | 1019.4 |
| 20260504044610 | 44 | 158 | 0.0 | 1.0 | 0.00 | 0.00 | 0.00 | 76 | 1016.7 |
| 20260504044511 | 44 | 111 | 1.0 | 2.0 | 0.00 | 0.00 | 0.00 | 76 | 1019.3 |
| 20260504044003 | 44 | 111 | 0.0 | 2.0 | 0.00 | 0.00 | 0.00 | 77 | 1019.2 |
| 20260504043609 | 45 | 158 | 0.0 | 0.0 | 0.00 | 0.00 | 0.00 | 75 | 1016.6 |
| 20260504043506 | 44 | 111 | 1.0 | 2.0 | 0.00 | 0.00 | 0.00 | 78 | 1019.2 |
| 20260504043016 | 44 | 107 | 1.0 | 2.0 | 0.00 | 0.00 | 0.00 | 77 | 1019.2 |
| 20260504042607 | 46 | 158 | 0.0 | 2.0 | 0.00 | 0.00 | 0.00 | 75 | 1016.6 |
| 20260504042506 | 43 | 113 | 1.0 | 2.0 | 0.00 | 0.00 | 0.00 | 78 | 1019.2 |
| 20260504042006 | 43 | 117 | 1.0 | 2.0 | 0.00 | 0.00 | 0.00 | 79 | 1019.1 |
| 20260504041518 | 43 | 102 | 1.0 | 2.0 | 0.00 | 0.00 | 0.00 | 81 | 1019.1 |
| 20260504041009 | 43 | 119 | 2.0 | 2.0 | 0.00 | 0.00 | 0.00 | 81 | 1019.0 |
| 20260504040503 | 43 | 120 | 1.0 | 3.0 | 0.00 | 0.00 | 0.00 | 81 | 1019.0 |
| 20260504040012 | 44 | 138 | 1.0 | 3.0 | 0.00 | 0.00 | 0.00 | 80 | 1019.0 |
| 20260504035604 | 45 | 158 | 0.0 | 3.0 | 0.00 | 0.00 | 0.00 | 74 | 1016.5 |
| 20260504035507 | 44 | 121 | 2.0 | 3.0 | 0.00 | 0.00 | 0.00 | 80 | 1019.1 |
| 20260504035010 | 44 | 119 | 2.0 | 3.0 | 0.00 | 0.00 | 0.00 | 81 | 1019.1 |
| 20260504034603 | 44 | 158 | 2.0 | 3.0 | 0.00 | 0.00 | 0.00 | 76 | 1016.5 |
| 20260504034511 | 44 | 120 | 2.0 | 2.0 | 0.00 | 0.00 | 0.00 | 80 | 1019.1 |
| 20260504034003 | 44 | 136 | 1.0 | 2.0 | 0.00 | 0.00 | 0.00 | 78 | 1019.0 |
| 20260504033602 | 44 | 263 | 0.0 | 0.0 | 0.00 | 0.00 | 0.00 | 79 | 1016.4 |
| 20260504033502 | 44 | 115 | 1.0 | 2.0 | 0.00 | 0.00 | 0.00 | 77 | 1019.1 |
| 20260504033010 | 44 | 103 | 1.0 | 2.0 | 0.00 | 0.00 | 0.00 | 77 | 1019.1 |
| 20260504032503 | 45 | 110 | 1.0 | 2.0 | 0.00 | 0.00 | 0.00 | 76 | 1019.1 |
| 20260504032007 | 45 | 112 | 1.0 | 2.0 | 0.00 | 0.00 | 0.00 | 75 | 1019.0 |
| 20260504031600 | 44 | 263 | 0.0 | 0.0 | 0.00 | 0.00 | 0.00 | 77 | 1016.5 |
| 20260504031518 | 45 | 113 | 1.0 | 2.0 | 0.00 | 0.00 | 0.00 | 75 | 1018.9 |
| 20260504031007 | 45 | 115 | 1.0 | 2.0 | 0.00 | 0.00 | 0.00 | 74 | 1019.1 |
| 20260504030559 | 44 | 263 | 0.0 | 1.0 | 0.00 | 0.00 | 0.00 | 76 | 1016.4 |
| 20260504030507 | 45 | 124 | 1.0 | 2.0 | 0.00 | 0.00 | 0.00 | 74 | 1019.0 |
| 20260504030022 | 45 | 128 | 2.0 | 2.0 | 0.00 | 0.00 | 0.00 | 75 | 1019.1 |
| 20260504025507 | 45 | 110 | 2.0 | 3.0 | 0.00 | 0.00 | 0.00 | 75 | 1019.2 |
| 20260504025009 | 44 | 121 | 2.0 | 3.0 | 0.00 | 0.00 | 0.00 | 75 | 1019.1 |
| 20260504024557 | 44 | 263 | 1.0 | 2.0 | 0.00 | 0.00 | 0.00 | 76 | 1016.5 |
| 20260504024520 | 44 | 125 | 2.0 | 2.0 | 0.00 | 0.00 | 0.00 | 75 | 1019.1 |
| 20260504024009 | 45 | 122 | 2.0 | 2.0 | 0.00 | 0.00 | 0.00 | 75 | 1018.9 |
| 20260504023556 | 44 | 263 | 0.0 | 1.0 | 0.00 | 0.00 | 0.00 | 75 | 1016.4 |
| 20260504023505 | 45 | 142 | 1.0 | 2.0 | 0.00 | 0.00 | 0.00 | 74 | 1018.9 |
| 20260504023018 | 45 | 125 | 1.0 | 2.0 | 0.00 | 0.00 | 0.00 | 73 | 1019.0 |
| 20260504022555 | 45 | 263 | 1.0 | 1.0 | 0.00 | 0.00 | 0.00 | 75 | 1016.5 |
| 20260504022510 | 45 | 123 | 1.0 | 2.0 | 0.00 | 0.00 | 0.00 | 74 | 1019.0 |
| 20260504022007 | 45 | 119 | 2.0 | 2.0 | 0.00 | 0.00 | 0.00 | 74 | 1018.9 |
| 20260504021554 | 45 | 263 | 0.0 | 1.0 | 0.00 | 0.00 | 0.00 | 74 | 1016.4 |
| 20260504021513 | 46 | 117 | 2.0 | 2.0 | 0.00 | 0.00 | 0.00 | 73 | 1019.0 |
| 20260504021005 | 46 | 115 | 2.0 | 2.0 | 0.00 | 0.00 | 0.00 | 73 | 1019.0 |
| 20260504020553 | 46 | 263 | 1.0 | 2.0 | 0.00 | 0.00 | 0.00 | 73 | 1016.3 |
| 20260504020505 | 46 | 118 | 1.0 | 2.0 | 0.00 | 0.00 | 0.00 | 72 | 1018.9 |
| 20260504020033 | 46 | 109 | 1.0 | 2.0 | 0.00 | 0.00 | 0.00 | 73 | 1018.9 |
| 20260504015552 | 46 | 263 | 0.0 | 1.0 | 0.00 | 0.00 | 0.00 | 72 | 1016.3 |
| 20260504015506 | 46 | 105 | 1.0 | 2.0 | 0.00 | 0.00 | 0.00 | 73 | 1018.9 |
| 20260504015009 | 46 | 128 | 1.0 | 2.0 | 0.00 | 0.00 | 0.00 | 72 | 1019.0 |
| 20260504014551 | 47 | 263 | 1.0 | 2.0 | 0.00 | 0.00 | 0.00 | 71 | 1016.4 |
| 20260504014522 | 47 | 118 | 1.0 | 2.0 | 0.00 | 0.00 | 0.00 | 72 | 1019.0 |
| 20260504014006 | 47 | 112 | 1.0 | 2.0 | 0.00 | 0.00 | 0.00 | 71 | 1019.1 |
| 20260504013550 | 48 | 263 | 0.0 | 2.0 | 0.00 | 0.00 | 0.00 | 68 | 1016.5 |
| 20260504013508 | 48 | 111 | 0.0 | 2.0 | 0.00 | 0.00 | 0.00 | 69 | 1019.1 |
| 20260504013033 | 48 | 117 | 1.0 | 2.0 | 0.00 | 0.00 | 0.00 | 69 | 1019.1 |
| 20260504012549 | 49 | 263 | 2.0 | 2.0 | 0.00 | 0.00 | 0.00 | 67 | 1016.5 |
| 20260504012510 | 49 | 114 | 1.0 | 1.0 | 0.00 | 0.00 | 0.00 | 68 | 1019.1 |
| 20260504012007 | 49 | 114 | 1.0 | 2.0 | 0.00 | 0.00 | 0.00 | 66 | 1019.1 |
| 20260504011548 | 50 | 263 | 0.0 | 2.0 | 0.00 | 0.00 | 0.00 | 64 | 1016.4 |
| 20260504011522 | 49 | 113 | 0.0 | 2.0 | 0.00 | 0.00 | 0.00 | 65 | 1019.0 |
| 20260504011013 | 50 | 113 | 0.0 | 2.0 | 0.00 | 0.00 | 0.00 | 65 | 1019.0 |
| 20260504010546 | 51 | 263 | 1.0 | 2.0 | 0.00 | 0.00 | 0.00 | 63 | 1016.2 |
| 20260504010506 | 50 | 116 | 1.0 | 1.0 | 0.00 | 0.00 | 0.00 | 63 | 1018.8 |
| 20260504010013 | 51 | 116 | 1.0 | 2.0 | 0.00 | 0.00 | 0.00 | 62 | 1018.8 |
| 20260504005546 | 52 | 263 | 0.0 | 1.0 | 0.00 | 0.00 | 0.00 | 59 | 1016.1 |
| 20260504005507 | 51 | 116 | 0.0 | 2.0 | 0.00 | 0.00 | 0.00 | 60 | 1018.8 |
| 20260504005006 | 52 | 116 | 0.0 | 2.0 | 0.00 | 0.00 | 0.00 | 60 | 1018.7 |
| 20260504004545 | 53 | 263 | 1.0 | 2.0 | 0.00 | 0.00 | 0.00 | 59 | 1015.9 |
| 20260504004534 | 52 | 116 | 0.0 | 1.0 | 0.00 | 0.00 | 0.00 | 58 | 1018.6 |
| 20260504004010 | 53 | 116 | 1.0 | 1.0 | 0.00 | 0.00 | 0.00 | 58 | 1018.6 |